Location: Ecklingerode
(51.5036°N, 10.3122°E)
Time: 06:09:16
(UTC+00:00)

Cosmos 2074 Rocket - Pass Details

Date: 29 October 2020
Orbit: 967 x 987 km, 82.9° (Epoch: 01 December)

Event Time Altitude Azimuth Distance (km) Brightness Sun altitude
Rises 18:50:00 0° 350° (N) 3,676 7.3 -27.4°
Reaches altitude 10° 18:52:32 10° 353° (N) 2,723 6.5 -27.8°
Enters shadow 18:58:05 66° 33° (NNE) 1,053 4.0 -28.6°
